Block Island, RI

8:42 PM EDT on August 17, 2017 (GMT -0400)
Block Island State

Weather History for KBID - March, 2013

Change the Weather History Date:

Saturday, March 2, 2013

  Actual Average Record
Temperature  
Mean Temperature 37 °F -  
Max Temperature 41 °F 40 °F 54 °F (1991)
Min Temperature 33 °F 30 °F 9 °F (1962)
Degree Days  
Heating Degree Days 28    
Moisture  
Dew Point 26 °F    
Average Humidity 63    
Maximum Humidity 75    
Minimum Humidity 53    
Precipitation  
Precipitation 0.00 in - - ()
Sea Level Pressure  
Sea Level Pressure 29.67 in    
Wind  
Wind Speed 11 mph (WNW)    
Max Wind Speed 14 mph    
Max Gust Speed 20 mph    
Visibility 10 miles    
Events      
Averages and records for this station are not official NWS values.
T = Trace of Precipitation, MM = Missing Value Source: NWS Daily Summary

Daily Weather History Graph

Daily Weather History Graph

Search for Another Location

Airport or City:

Trip Planner

Search our weather history database for the weather conditions in past years. The results will help you decide how hot, cold, wet, or windy it might be!

Date:

Astronomy

Mar. 02, 2013 Rise Set
Actual Time 6:18 AM EST 5:38 PM EST
Civil Twilight 5:51 AM EST 6:06 PM EST
Nautical Twilight 5:19 AM EST 6:38 PM EST
Astronomical Twilight 4:47 AM EST 7:10 PM EST
Moon 11:18 PM EST (3/2) 8:41 AM EST (3/2)
Length of Visible Light 12h 15m
Length of Day
11h 19m
Waning Gibbous, 74% of the Moon is Illuminated
Mar 2
Waning Gibbous
Mar 4
Last Quarter
Mar 11
New
Mar 19
First Quarter
Mar 27
Full

Hourly Weather History & Observations

Time (EST) Temp. Windchill Dew Point Humidity Pressure Visibility Wind Dir Wind Speed Gust Speed Precip Events Conditions
12:15 AM 39.2 °F 32.0 °F 24.8 °F 56% 29.69 in 10.0 mi NNW 11.5 mph - N/A   Overcast
12:35 AM 39.2 °F 32.0 °F 24.8 °F 56% 29.69 in 10.0 mi NW 11.5 mph 17.3 mph N/A   Overcast
1:16 AM 39.2 °F 32.0 °F 26.6 °F 61% 29.69 in 10.0 mi NW 11.5 mph 16.1 mph N/A   Overcast
1:55 AM 37.4 °F 29.8 °F 26.6 °F 65% 29.68 in 10.0 mi NW 11.5 mph 19.6 mph N/A   Overcast
2:15 AM 37.4 °F 29.3 °F 26.6 °F 65% 29.68 in 10.0 mi NNW 12.7 mph 18.4 mph N/A   Overcast
2:35 AM 37.4 °F 28.9 °F 26.6 °F 65% 29.68 in 10.0 mi NNW 13.8 mph - N/A   Overcast
2:55 AM 37.4 °F 29.8 °F 24.8 °F 60% 29.68 in 10.0 mi NW 11.5 mph 18.4 mph N/A   Overcast
3:15 AM 35.6 °F 26.6 °F 24.8 °F 65% 29.68 in 10.0 mi NNW 13.8 mph 17.3 mph N/A   Overcast
3:35 AM 35.6 °F 27.5 °F 24.8 °F 65% 29.68 in 10.0 mi NNW 11.5 mph 19.6 mph N/A   Overcast
4:15 AM 35.6 °F 27.5 °F 23.0 °F 60% 29.69 in 10.0 mi NNW 11.5 mph 18.4 mph N/A   Overcast
4:35 AM 35.6 °F 28.0 °F 23.0 °F 60% 29.69 in 10.0 mi NW 10.4 mph 16.1 mph N/A   Overcast
4:55 AM 35.6 °F 27.5 °F 23.0 °F 60% 29.69 in 10.0 mi NW 11.5 mph 17.3 mph N/A   Scattered Clouds
5:15 AM 35.6 °F 27.1 °F 24.8 °F 65% 29.69 in 10.0 mi NW 12.7 mph 17.3 mph N/A   Clear
5:35 AM 35.6 °F 28.0 °F 24.8 °F 65% 29.69 in 10.0 mi NW 10.4 mph - N/A   Partly Cloudy
5:55 AM 33.8 °F 26.4 °F 26.6 °F 75% 29.69 in 10.0 mi WNW 9.2 mph - N/A   Clear
6:15 AM 33.8 °F 25.8 °F 26.6 °F 75% 29.69 in 10.0 mi NW 10.4 mph - N/A   Clear
6:55 AM 35.6 °F 28.6 °F 26.6 °F 70% 29.70 in 10.0 mi NW 9.2 mph 17.3 mph N/A   Clear
7:35 AM 35.6 °F 28.0 °F 26.6 °F 70% 29.70 in 10.0 mi WNW 10.4 mph - N/A   Clear
7:55 AM 37.4 °F 31.4 °F 26.6 °F 65% 29.70 in 10.0 mi NW 8.1 mph - N/A   Clear
8:15 AM 37.4 °F 30.8 °F 26.6 °F 65% 29.70 in 10.0 mi NW 9.2 mph - N/A   Clear
8:35 AM 37.4 °F 30.3 °F 26.6 °F 65% 29.69 in 10.0 mi NW 10.4 mph - N/A   Clear
8:55 AM 37.4 °F 30.8 °F 26.6 °F 65% 29.69 in 10.0 mi NW 9.2 mph 18.4 mph N/A   Partly Cloudy
9:15 AM 37.4 °F 29.8 °F 26.6 °F 65% 29.69 in 10.0 mi NW 11.5 mph 17.3 mph N/A   Partly Cloudy
9:35 AM 37.4 °F 30.3 °F 26.6 °F 65% 29.69 in 10.0 mi NW 10.4 mph 16.1 mph N/A   Clear
9:55 AM 39.2 °F 32.5 °F 26.6 °F 61% 29.69 in 10.0 mi NW 10.4 mph - N/A   Partly Cloudy
10:15 AM 39.2 °F 32.0 °F 26.6 °F 61% 29.69 in 10.0 mi NW 11.5 mph - N/A   Mostly Cloudy
10:35 AM 39.2 °F 33.0 °F 24.8 °F 56% 29.69 in 10.0 mi NNW 9.2 mph 16.1 mph N/A   Mostly Cloudy
10:55 AM 39.2 °F 32.5 °F 24.8 °F 56% 29.69 in 10.0 mi WNW 10.4 mph 18.4 mph N/A   Overcast
11:15 AM 39.2 °F 32.0 °F 24.8 °F 56% 29.68 in 10.0 mi NW 11.5 mph - N/A   Overcast
11:35 AM 41.0 °F 35.2 °F 24.8 °F 53% 29.67 in 10.0 mi NW 9.2 mph 16.1 mph N/A   Overcast
11:55 AM 39.2 °F 32.0 °F 24.8 °F 56% 29.68 in 10.0 mi WNW 11.5 mph 16.1 mph N/A   Overcast
12:15 PM 39.2 °F 33.0 °F 24.8 °F 56% 29.67 in 10.0 mi West 9.2 mph - N/A   Overcast
12:35 PM 39.2 °F 33.0 °F 24.8 °F 56% 29.67 in 10.0 mi West 9.2 mph - N/A   Overcast
12:55 PM 39.2 °F 32.5 °F 24.8 °F 56% 29.67 in 10.0 mi West 10.4 mph - N/A   Overcast
1:15 PM 39.2 °F 32.0 °F 26.6 °F 61% 29.67 in 10.0 mi West 11.5 mph - N/A   Overcast
1:35 PM 37.4 °F 30.3 °F 24.8 °F 60% 29.67 in 10.0 mi West 10.4 mph 17.3 mph N/A   Overcast
1:55 PM 37.4 °F 29.8 °F 24.8 °F 60% 29.67 in 10.0 mi West 11.5 mph 17.3 mph N/A   Overcast
2:15 PM 37.4 °F 29.3 °F 24.8 °F 60% 29.66 in 10.0 mi West 12.7 mph - N/A   Overcast
2:35 PM 37.4 °F 30.8 °F 24.8 °F 60% 29.65 in 10.0 mi West 9.2 mph - N/A   Overcast
2:55 PM 37.4 °F 29.8 °F 24.8 °F 60% 29.65 in 10.0 mi West 11.5 mph - N/A   Overcast
3:15 PM 37.4 °F 31.4 °F 24.8 °F 60% 29.65 in 10.0 mi West 8.1 mph - N/A   Overcast
3:35 PM 37.4 °F 31.4 °F 26.6 °F 65% 29.65 in 10.0 mi West 8.1 mph - N/A   Overcast
3:55 PM 37.4 °F 30.3 °F 26.6 °F 65% 29.64 in 10.0 mi West 10.4 mph 16.1 mph N/A   Overcast
4:35 PM 37.4 °F 30.8 °F 26.6 °F 65% 29.64 in 10.0 mi West 9.2 mph - N/A   Overcast
5:15 PM 37.4 °F 30.3 °F 26.6 °F 65% 29.65 in 10.0 mi West 10.4 mph 16.1 mph N/A   Overcast
5:35 PM 37.4 °F 29.8 °F 26.6 °F 65% 29.66 in 10.0 mi West 11.5 mph - N/A   Overcast
5:55 PM 37.4 °F 30.3 °F 26.6 °F 65% 29.67 in 10.0 mi West 10.4 mph - N/A   Overcast
6:15 PM 37.4 °F 30.8 °F 26.6 °F 65% 29.67 in 10.0 mi West 9.2 mph - N/A   Overcast
6:35 PM 37.4 °F 30.3 °F 26.6 °F 65% 29.67 in 10.0 mi West 10.4 mph - N/A   Overcast
6:55 PM 37.4 °F 30.3 °F 26.6 °F 65% 29.67 in 10.0 mi West 10.4 mph - N/A   Overcast
7:15 PM 37.4 °F 31.4 °F 28.4 °F 70% 29.67 in 10.0 mi West 8.1 mph - N/A   Overcast
7:35 PM 37.4 °F 30.8 °F 28.4 °F 70% 29.66 in 10.0 mi West 9.2 mph - N/A   Overcast
7:55 PM 37.4 °F 31.4 °F 26.6 °F 65% 29.67 in 10.0 mi WNW 8.1 mph - N/A   Overcast
8:15 PM 37.4 °F 31.4 °F 26.6 °F 65% 29.67 in 10.0 mi WNW 8.1 mph - N/A   Overcast
8:35 PM 37.4 °F 32.1 °F 26.6 °F 65% 29.67 in 10.0 mi WNW 6.9 mph - N/A   Overcast
8:55 PM 37.4 °F 30.8 °F 26.6 °F 65% 29.67 in 10.0 mi WNW 9.2 mph - N/A   Overcast
9:15 PM 37.4 °F 32.1 °F 26.6 °F 65% 29.67 in 10.0 mi WNW 6.9 mph - N/A   Overcast
9:35 PM 37.4 °F 32.1 °F 26.6 °F 65% 29.66 in 10.0 mi NW 6.9 mph - N/A   Overcast
10:15 PM 37.4 °F 32.1 °F 26.6 °F 65% 29.65 in 10.0 mi NW 6.9 mph - N/A   Overcast
10:35 PM 37.4 °F 31.4 °F 26.6 °F 65% 29.65 in 10.0 mi NNW 8.1 mph - N/A   Overcast
10:55 PM 37.4 °F 30.8 °F 26.6 °F 65% 29.65 in 10.0 mi NNW 9.2 mph - N/A   Overcast
11:15 PM 37.4 °F 31.4 °F 26.6 °F 65% 29.65 in 10.0 mi NNW 8.1 mph - N/A   Overcast
11:35 PM 37.4 °F 31.4 °F 26.6 °F 65% 29.64 in 10.0 mi NNW 8.1 mph - N/A   Overcast
11:55 PM 37.4 °F 32.1 °F 26.6 °F 65% 29.64 in 10.0 mi NNW 6.9 mph - N/A   Overcast